Flag for Canada Weather past 2 weeks in Red Deer, Alberta, Canada

Now
43 °F

Partly sunny.


Feels Like: 37 °F
Forecast: 34 / 49 °F
Wind: 10 mph from Southwest

Location: Red Deer

Current Time: Oct 24, 2014 at 1:15:46 PM

Latest Report: Oct 24, 2014 at 12:00 PM


Visibility: 15 mi

Pressure: 29.98 "Hg

Humidity: 61%

Dew point: 30 °F

Location of Red DeerLocation

Historic Weather in Red Deer — Graph

°F

Red Deer temperature yesterday

Maximum temperature yesterday: 63 °F (at 2:00 PM)
Minimum temperature yesterday: 36 °F (at 8:00 AM)
Average temperature yesterday: 46 °F

Past Weeks' High & Low Weather Summary

 TemperatureHumidityPressure
High72 °F (Oct 10, 4:00 PM)100% (Oct 10, 6:00 AM)30.18 "Hg (Oct 10, 6:00 AM)
Low27 °F (Oct 13, 8:00 AM)20% (Oct 23, 3:00 PM)29.51 "Hg (Oct 14, 9:00 AM)
Average47 °F63%29.79 "Hg
* Reported Oct 9 12:00 Noon — Oct 24 12:00 Noon, Red Deer, Weather by CustomWeather, © 2014

Note: Actual official high and low records may vary slightly from our data, if they occured in-between our weather recording intervals... More about our weather records

Advertising

Red Deer weather history for previous 24 hours

 ConditionsComfort  
Time TempWeatherWind HumidityBarometerVisibility
12:00 PM
Oct 24
43 °FPartly sunny.10 mph61%29.98 "Hg15 mi
11:00 AM39 °FPartly sunny.8 mph75%29.98 "Hg15 mi
10:00 AM37 °FPartly sunny.9 mph75%29.97 "Hg15 mi
9:00 AM34 °FPassing clouds.9 mph81%29.95 "Hg15 mi
8:00 AM32 °FPassing clouds.10 mph80%29.92 "Hg15 mi
7:00 AM28 °FPassing clouds.5 mph93%29.91 "Hg15 mi
6:00 AM32 °FPassing clouds.2 mph80%29.86 "Hg15 mi
5:00 AM37 °FPassing clouds.3 mph70%29.82 "Hg15 mi
4:00 AM37 °FPassing clouds.5 mph65%29.79 "Hg15 mi
3:00 AM41 °FPassing clouds.8 mph49%29.73 "Hg15 mi
2:00 AM46 °FOvercast.13 mph43%29.70 "Hg15 mi
1:00 AM46 °FMostly cloudy.10 mph40%29.67 "Hg15 mi
12:00 AM48 °FOvercast.10 mph40%29.65 "Hg15 mi
11:00 PM
Oct 23
45 °FOvercast.12 mph42%29.64 "Hg15 mi
10:00 PM41 °FPassing clouds.8 mph53%29.62 "Hg15 mi
9:00 PM45 °FClear.6 mph42%29.63 "Hg15 mi
8:00 PM43 °FClear.6 mph49%29.62 "Hg15 mi
7:00 PM41 °FPassing clouds.9 mph49%29.62 "Hg15 mi
6:00 PM52 °FPassing clouds.8 mph26%29.59 "Hg15 mi
5:00 PM57 °FPassing clouds.6 mph25%29.56 "Hg15 mi
4:00 PM59 °FPassing clouds.12 mph23%29.55 "Hg15 mi
3:00 PM63 °FScattered clouds.16 mph20%29.54 "Hg15 mi
2:00 PM63 °FPartly sunny.16 mph32%29.53 "Hg15 mi
1:00 PM61 °FPassing clouds.17 mph34%29.54 "Hg15 mi
Weather by CustomWeather, © 2014

See weather overviewHow to use our weather pages